This demonstration page uses our WeatherBlox Daily Observations layout. Learn more.

36.17497, -115.13722

Hourly Observations for August 22, 2018

Temp ( °F °C ) Dew Point ( °F °C ) Humidity (%) Winds ( mph kmh ) Pressure ( in mb ) Visibility ( mi km ) Precip ( " mm )
12:53 am 00:53 Clear 91 32.8 42 5.6 18 18 S 9 15 29.85 1011 10 16.0934 0 0
1:53 am 01:53 Clear 90 32.2 43 6.1 19 19 SSW 10 17 29.85 1011 10 16.0934 0 0
2:53 am 02:53 Clear 88 31.1 42 5.6 20 20 SSW 12 19 29.85 1011 10 16.0934 0 0
3:53 am 03:53 Clear 88 31.1 41 5 19 19 S 14 22 29.85 1011 10 16.0934 0 0
4:53 am 04:53 Clear 87 30.6 41 5 20 20 SSW 14 22 29.86 1011 10 16.0934 0 0
5:53 am 05:53 Clear 86 30 42 5.6 21 21 SSW 10 17 29.89 1012 10 16.0934 0 0
6:53 am 06:53 Sunny 87 30.6 42 5.6 21 21 S 7 11 29.92 1013 10 16.0934 0 0
7:53 am 07:53 Sunny 87 30.6 44 6.7 22 22 SSW 6 9 29.95 1014 10 16.0934 0 0
8:53 am 08:53 Sunny 91 32.8 44 6.7 20 20 S 13 20 29.96 1015 10 16.0934 0 0
9:53 am 09:53 Sunny 92 33.3 47 8.3 21 21 SE 10 17 29.97 1015 10 16.0934 0 0
10:53 am 10:53 Sunny 93 33.9 53 11.7 26 26 SSE 10 17 29.97 1015 10 16.0934 0 0
11:53 am 11:53 Sunny 97 36.1 53 11.7 23 23 SSE 16 26 29.94 1014 10 16.0934 0 0
12:53 pm 12:53 Mostly Sunny 98 36.7 55 12.8 24 24 SE 13 20 29.91 1013 10 16.0934 0 0
1:53 pm 13:53 Sunny 98 36.7 57 13.9 25 25 S 18 30 29.89 1012 10 16.0934 0 0
2:53 pm 14:53 Sunny 99 37.2 55 12.8 23 23 SE 15 24 29.87 1011 10 16.0934 0 0
3:53 pm 15:53 Sunny 99 37.2 55 12.8 23 23 SE 15 24 29.85 1011 10 16.0934 0 0
4:53 pm 16:53 Sunny 98 36.7 55 12.8 24 24 SSE 17 28 29.84 1010 10 16.0934 0 0
5:53 pm 17:53 Sunny 98 36.7 55 12.8 24 24 SE 15 24 29.82 1010 10 16.0934 0 0
6:53 pm 18:53 Sunny 96 35.6 56 13.3 26 26 S 16 26 29.82 1010 10 16.0934 0 0
7:53 pm 19:53 Clear 94 34.4 55 12.8 27 27 S 9 15 29.84 1010 10 16.0934 0 0
8:53 pm 20:53 Clear 92 33.3 56 13.3 30 30 ESE 7 11 29.86 1011 10 16.0934 0 0
9:53 pm 21:53 Clear 90 32.2 56 13.3 32 32 E 9 15 29.88 1012 10 16.0934 0 0
10:53 pm 22:53 Clear 89 31.7 55 12.8 31 31 E 8 13 29.89 1012 10 16.0934 0 0
11:53 pm 23:53 Clear 88 31.1 58 14.4 36 36 E 7 11 29.89 1012 10 16.0934 0 0

Powered by AerisWeather